Wind_Speed
16 16 16 16 16 16 16 15 15 14 13 11 10 9 8 7 6 5 5 3 3 2 2 3 2 2 3 3 4 4 5 6 6 7 7 7 7 8 8 8 9 9 10
15 15 16 16 15 15 15 14 13 13 12 11 10 10 9 7 6 5 5 4 3 3 4 4 3 3 4 4 5 5 5 6 7 7 8 8 9 9 10 10 10 10 10
13 13 14 15 14 14 14 14 14 13 12 11 10 10 9 8 7 6 5 5 4 4 5 5 5 5 5 6 6 6 6 7 7 7 8 9 10 10 11 10 10 10 11
11 12 13 14 14 13 13 14 13 12 12 11 10 9 9 8 8 7 6 6 6 5 6 6 7 6 6 7 7 8 9 9 9 8 9 10 10 11 11 12 12 12 12
10 10 11 12 13 14 13 13 12 12 11 12 11 9 9 9 9 8 7 6 6 7 7 7 7 7 7 8 8 9 9 10 10 10 10 10 11 11 11 12 13 14 14
9 9 10 11 12 12 12 12 12 12 12 11 11 10 10 10 10 9 8 8 8 7 7 7 7 8 8 9 10 10 10 11 11 11 11 11 11 12 12 13 14 14 14
9 8 9 10 11 11 12 12 13 13 13 12 12 11 11 11 11 10 9 9 9 9 8 8 9 10 10 10 11 11 11 11 11 11 12 12 12 13 13 14 15 15 15
8 8 9 10 10 11 11 12 12 13 13 13 12 12 11 12 12 11 11 11 11 10 10 10 11 11 11 11 11 12 12 12 12 13 13 13 13 14 14 15 15 16 16
8 8 9 10 11 11 11 12 12 13 13 12 12 12 12 11 11 11 11 12 12 12 11 11 11 12 12 12 13 13 13 13 13 13 13 14 14 15 15 15 15 15 15
9 9 9 10 11 11 11 12 13 13 14 14 12 12 12 11 11 12 12 13 13 13 13 12 12 13 13 13 13 12 12 12 13 13 13 14 15 15 15 16 16 16 17
10 10 10 11 11 12 12 12 13 13 13 14 13 12 12 12 12 13 13 13 13 13 13 13 12 12 13 13 13 12 12 13 14 14 15 15 16 16 17 17 17 17 18
11 11 11 11 12 12 13 13 13 14 13 13 14 14 13 13 13 14 14 14 14 13 13 14 13 13 13 13 13 13 13 13 14 15 15 16 17 17 16 17 17 18 19
11 11 11 11 12 13 13 14 14 15 15 14 14 15 14 14 14 14 14 14 14 13 12 13 13 12 12 12 12 12 13 14 15 16 16 17 17 17 17 17 18 19 19
12 12 12 12 12 13 14 15 16 16 16 15 15 15 15 15 15 15 14 14 14 13 13 13 12 12 12 13 13 13 14 14 14 15 15 16 16 16 17 18 18 19 20
14 14 14 14 14 15 15 16 16 16 16 16 16 16 16 16 16 16 15 15 15 14 14 13 13 13 14 13 13 14 14 15 15 16 17 17 17 18 19 19 20 20 20
16 16 16 15 15 15 16 16 16 16 17 17 17 16 16 17 16 16 16 16 15 15 15 15 14 14 14 14 15 15 15 16 17 17 18 19 19 19 20 20 21 20 20
18 18 18 18 17 17 17 17 17 17 18 18 18 17 17 17 17 17 17 17 16 17 16 16 15 15 15 15 16 16 17 18 18 18 19 19 19 19 19 20 20 20 21
20 20 20 20 19 19 18 18 18 18 19 19 19 18 17 18 18 18 18 18 18 17 17 16 16 16 16 17 17 18 19 19 19 19 19 19 19 19 20 20 20 20 21
21 21 21 20 20 20 20 19 19 19 19 20 19 19 18 18 18 19 19 19 19 18 17 16 17 17 17 18 18 18 19 20 20 20 20 19 19 19 20 20 20 21 21
22 23 23 22 22 21 21 21 20 20 20 20 19 19 19 19 19 19 19 19 19 19 18 17 17 17 18 18 18 19 20 20 21 20 20 20 20 20 20 21 21 22 22
24 24 24 24 24 23 21 21 21 21 21 20 19 19 19 19 19 20 20 20 20 19 18 18 18 18 19 19 19 19 20 20 20 20 20 21 22 22 22 22 22 22 22
25 26 26 25 24 24 24 22 21 21 21 20 20 20 20 20 20 21 21 20 20 20 19 19 19 20 20 20 20 20 21 20 20 21 21 22 22 22 22 22 22 22 23
26 27 27 26 25 26 25 24 24 23 23 21 21 21 21 21 22 22 21 21 21 20 20 20 20 20 21 21 21 21 21 21 21 22 22 21 22 22 22 22 23 23 23
27 28 27 27 27 27 25 24 23 22 22 22 21 21 22 22 22 22 22 22 22 22 22 21 21 21 21 21 21 21 21 21 21 21 22 22 23 24 24 24 24 24 24
29 29 29 27 27 25 23 23 23 22 22 21 21 21 22 22 22 22 22 22 22 22 23 22 22 22 22 21 22 22 22 22 22 22 23 24 25 25 25 25 25 26 26
28 28 27 27 26 25 24 23 23 22 22 21 21 22 22 22 22 22 22 23 23 23 24 23 23 23 23 22 23 23 23 23 24 24 24 25 25 25 26 26 27 27 27
Wind_Direction
43 42 42 43 44 44 44 45 46 46 46 46 46 44 44 45 47 44 35 28 20 9 349 337 320 304 292 281 280 279 275 279 282 283 282 283 284 288 292 293 294 293 291
39 37 35 36 38 40 39 40 41 41 41 40 40 37 35 33 33 30 16 2 354 339 328 324 321 300 290 285 287 288 283 283 283 284 281 279 280 284 289 289 291 291 291
34 33 31 30 30 32 33 33 31 32 32 32 31 28 25 19 13 10 357 343 331 320 317 313 307 293 286 285 286 287 288 287 286 286 285 284 284 284 286 286 286 286 288
31 29 26 26 27 28 27 29 28 28 26 24 22 17 11 7 2 357 349 338 326 316 310 308 305 294 282 284 287 287 288 292 287 286 289 288 284 285 283 284 285 288 288
25 26 23 23 23 24 23 24 22 18 14 16 16 12 6 2 356 352 346 335 322 312 308 306 305 304 293 288 288 289 290 291 290 287 287 289 285 286 284 283 283 286 288
15 17 16 14 14 17 18 17 16 13 8 10 8 4 360 357 356 351 341 329 322 314 308 304 304 304 299 295 292 289 290 291 290 290 289 287 286 286 285 285 284 287 288
3 6 5 4 5 10 12 12 12 9 4 2 1 359 352 349 349 345 336 327 321 315 311 306 303 302 299 297 298 295 294 293 293 293 294 291 289 287 286 285 284 286 286
352 358 356 353 356 1 3 4 5 6 3 359 356 353 347 340 341 339 333 329 321 312 305 301 299 300 297 296 297 296 294 293 293 293 295 295 293 290 289 288 286 285 285
338 342 345 346 347 348 351 353 354 356 356 354 353 348 344 338 337 336 331 330 324 316 306 299 298 298 295 294 293 293 291 290 291 290 292 294 294 290 291 290 288 288 288
324 329 332 336 337 339 340 342 345 346 346 347 344 342 339 337 333 332 329 328 323 315 308 301 299 300 298 296 294 294 293 291 291 292 292 292 295 295 291 291 291 289 289
311 315 321 324 326 327 330 332 336 337 337 341 340 338 337 337 333 331 328 324 320 315 309 304 302 301 300 296 295 295 295 292 292 294 293 294 297 298 297 291 290 290 290
303 308 310 313 315 317 319 322 325 328 333 335 338 339 336 336 333 329 327 325 320 316 311 306 302 302 304 301 297 295 296 295 294 295 296 295 296 297 299 297 297 297 294
299 303 305 309 311 312 313 314 318 323 326 328 331 333 332 331 330 330 330 329 328 324 320 315 307 306 307 306 305 303 300 297 296 296 297 296 298 300 299 301 301 300 299
291 297 301 305 306 309 311 312 314 317 321 323 323 324 324 323 322 324 327 328 328 324 321 318 313 312 309 308 307 306 305 303 302 301 300 300 301 303 303 301 301 300 300
286 290 296 301 304 306 308 311 312 314 316 318 317 316 316 316 318 320 323 325 325 322 320 317 314 312 310 308 309 308 307 306 305 303 302 301 301 301 302 302 301 300 300
282 288 294 299 301 303 305 305 307 311 311 312 312 312 312 312 314 316 317 318 319 318 315 314 313 311 310 308 308 307 307 306 305 304 304 303 301 301 301 301 301 301 301
279 285 291 295 295 298 300 302 302 305 306 306 307 308 308 309 310 312 314 314 314 313 312 312 311 310 308 308 308 308 306 306 306 306 304 303 301 302 303 303 304 305 304
275 282 288 291 292 294 295 295 295 298 300 302 303 303 304 305 306 308 309 310 310 310 309 310 310 311 309 308 308 307 307 306 307 306 304 303 303 303 306 306 306 307 307
272 278 283 286 290 290 290 290 291 293 294 297 298 299 301 303 304 304 306 307 308 308 308 308 309 309 309 307 307 306 307 307 307 307 306 305 305 306 306 306 306 305 306
273 277 282 285 287 288 289 287 287 289 291 294 295 296 298 300 302 304 305 305 307 308 307 308 309 309 308 306 306 306 307 307 307 307 307 307 307 306 307 306 307 306 307
272 276 279 282 283 284 286 285 284 288 290 291 291 295 297 298 300 304 305 304 306 307 308 308 307 307 308 308 307 307 308 308 308 308 307 307 307 305 305 305 306 307 308
270 273 275 278 279 280 282 283 282 284 287 289 290 292 295 297 300 303 305 304 304 305 306 306 306 306 305 306 308 309 310 310 310 311 310 308 307 305 303 304 305 306 307
269 272 272 271 275 277 279 281 281 280 282 285 287 289 293 297 299 300 302 304 303 303 304 305 305 305 305 306 307 308 309 310 311 313 312 310 310 309 306 304 305 306 308
270 271 271 270 273 275 276 279 279 279 280 282 284 288 291 294 297 297 297 300 303 302 303 304 304 304 304 305 307 308 309 311 312 313 313 312 311 310 310 308 306 306 307
270 271 274 275 273 273 274 276 277 278 281 283 284 286 289 292 294 295 295 299 302 303 303 304 304 305 304 304 306 307 309 310 311 311 311 311 310 309 310 310 309 307 307
270 272 273 273 272 272 273 274 275 276 279 282 283 285 287 289 291 292 294 297 300 301 303 304 304 304 303 303 305 306 308 308 309 309 309 309 310 311 310 310 309 308 307
Height
5923 5922 5920 5919 5917 5915 5914 5912 5911 5910 5909 5908 5907 5906 5905 5904 5903 5903 5902 5902 5901 5900 5900 5899 5899 5899 5899 5899 5899 5898 5898 5898 5898 5898 5898 5898 5897 5897 5896 5896 5895 5895 5894
5926 5924 5922 5921 5919 5917 5916 5914 5913 5911 5910 5909 5908 5908 5906 5905 5904 5903 5903 5902 5901 5901 5900 5899 5899 5898 5898 5898 5898 5898 5897 5897 5897 5897 5896 5896 5896 5895 5895 5894 5893 5893 5892
5927 5925 5924 5922 5920 5919 5917 5916 5914 5913 5912 5910 5909 5908 5907 5906 5905 5904 5903 5902 5901 5900 5900 5899 5899 5898 5898 5897 5897 5897 5896 5896 5895 5895 5895 5895 5894 5893 5893 5892 5891 5891 5890
5928 5927 5925 5923 5922 5920 5918 5917 5916 5914 5913 5911 5910 5909 5908 5906 5905 5904 5902 5901 5900 5900 5899 5898 5898 5897 5897 5896 5896 5895 5895 5894 5893 5893 5893 5893 5892 5891 5890 5890 5889 5888 5887
5929 5928 5926 5925 5923 5921 5920 5918 5917 5915 5914 5912 5910 5909 5908 5906 5905 5903 5902 5901 5900 5899 5898 5897 5896 5896 5895 5895 5894 5894 5893 5892 5891 5891 5890 5890 5889 5888 5888 5887 5886 5886 5884
5930 5928 5927 5925 5924 5922 5920 5919 5917 5915 5914 5912 5910 5909 5908 5906 5905 5903 5902 5900 5899 5898 5897 5896 5895 5895 5894 5893 5892 5892 5891 5890 5889 5889 5888 5887 5886 5885 5884 5884 5883 5882 5882
5930 5928 5927 5926 5924 5922 5921 5919 5917 5915 5913 5911 5909 5908 5907 5906 5904 5902 5901 5899 5898 5897 5896 5895 5894 5893 5892 5891 5890 5889 5888 5888 5887 5886 5885 5884 5883 5882 5881 5881 5880 5879 5878
5929 5928 5927 5926 5924 5923 5921 5919 5917 5916 5913 5911 5909 5907 5906 5905 5903 5902 5900 5898 5897 5895 5894 5893 5892 5891 5890 5889 5888 5887 5886 5885 5884 5883 5882 5881 5880 5879 5878 5877 5876 5875 5874
5929 5927 5926 5925 5924 5922 5921 5919 5917 5915 5913 5911 5909 5907 5905 5904 5902 5900 5899 5897 5895 5894 5892 5891 5890 5889 5887 5886 5885 5884 5883 5882 5881 5880 5879 5878 5877 5876 5874 5873 5872 5871 5870
5928 5927 5925 5924 5923 5922 5920 5918 5917 5915 5913 5911 5908 5906 5904 5902 5901 5899 5898 5896 5893 5892 5890 5888 5887 5886 5884 5884 5883 5882 5881 5880 5879 5878 5876 5875 5874 5872 5871 5870 5868 5867 5866
5926 5925 5924 5923 5922 5920 5919 5917 5915 5914 5911 5909 5907 5905 5903 5901 5899 5898 5896 5894 5891 5889 5887 5886 5885 5883 5882 5881 5880 5879 5878 5877 5876 5874 5873 5872 5870 5869 5867 5865 5864 5863 5861
5924 5923 5923 5922 5920 5919 5917 5916 5914 5912 5909 5908 5906 5904 5902 5900 5898 5896 5894 5892 5889 5887 5885 5884 5882 5881 5880 5878 5877 5876 5875 5874 5873 5871 5870 5868 5867 5865 5863 5861 5860 5858 5857
5921 5921 5920 5919 5918 5917 5915 5914 5912 5910 5909 5907 5905 5903 5901 5899 5897 5895 5893 5890 5888 5885 5883 5882 5880 5879 5878 5876 5875 5874 5872 5871 5869 5868 5866 5864 5862 5861 5859 5857 5855 5854 5852
5919 5918 5917 5917 5916 5914 5913 5911 5910 5909 5907 5905 5904 5902 5900 5898 5896 5893 5891 5889 5886 5884 5882 5880 5879 5877 5876 5874 5872 5871 5869 5867 5866 5864 5862 5861 5859 5857 5855 5853 5852 5849 5848
5915 5915 5914 5913 5912 5911 5910 5909 5907 5906 5904 5903 5901 5899 5897 5895 5893 5891 5889 5887 5885 5883 5881 5879 5877 5875 5873 5872 5870 5868 5866 5865 5863 5861 5859 5857 5855 5853 5851 5849 5847 5845 5843
5911 5911 5910 5909 5909 5908 5907 5906 5904 5903 5901 5900 5898 5896 5894 5892 5891 5889 5886 5884 5883 5880 5878 5876 5874 5872 5870 5869 5867 5865 5863 5861 5859 5857 5855 5853 5851 5849 5847 5844 5842 5840 5838
5907 5907 5906 5906 5905 5904 5903 5902 5901 5899 5898 5897 5895 5893 5891 5889 5888 5886 5883 5882 5880 5878 5875 5873 5871 5869 5867 5865 5863 5861 5859 5857 5855 5853 5851 5849 5847 5844 5842 5840 5838 5835 5833
5902 5902 5901 5901 5900 5900 5899 5897 5896 5895 5894 5892 5891 5889 5888 5886 5884 5882 5880 5878 5876 5874 5872 5870 5868 5866 5864 5862 5860 5858 5856 5853 5851 5849 5846 5844 5842 5840 5838 5835 5833 5830 5828
5897 5896 5896 5896 5895 5895 5894 5893 5892 5891 5889 5888 5886 5885 5884 5882 5880 5878 5876 5874 5873 5871 5868 5866 5865 5863 5861 5859 5856 5854 5851 5849 5847 5844 5842 5840 5838 5836 5833 5831 5828 5826 5823
5891 5891 5891 5890 5890 5889 5888 5888 5887 5886 5885 5884 5882 5881 5880 5878 5877 5875 5872 5871 5869 5866 5864 5862 5861 5859 5857 5855 5852 5850 5847 5845 5842 5840 5838 5835 5833 5831 5828 5826 5823 5821 5818
5885 5885 5884 5884 5884 5884 5883 5882 5881 5880 5880 5879 5878 5877 5875 5874 5872 5870 5868 5866 5865 5862 5860 5859 5857 5855 5853 5850 5848 5845 5843 5840 5837 5835 5833 5830 5827 5825 5823 5820 5818 5815 5813
5879 5878 5878 5878 5878 5877 5877 5875 5875 5875 5874 5874 5872 5872 5870 5869 5868 5866 5864 5862 5860 5858 5856 5855 5853 5850 5848 5846 5843 5841 5838 5835 5832 5830 5827 5824 5822 5820 5817 5815 5812 5810 5807
5871 5871 5870 5871 5870 5870 5870 5869 5869 5869 5868 5868 5867 5866 5865 5864 5863 5861 5859 5858 5856 5854 5852 5850 5848 5846 5844 5841 5839 5836 5833 5830 5828 5825 5821 5819 5816 5814 5812 5809 5806 5804 5801
5862 5863 5862 5862 5862 5862 5862 5862 5862 5861 5862 5861 5861 5860 5860 5859 5857 5856 5854 5853 5851 5849 5847 5845 5843 5841 5839 5836 5834 5832 5829 5826 5823 5820 5817 5814 5812 5809 5806 5803 5800 5798 5795
5855 5855 5855 5855 5855 5854 5854 5855 5855 5855 5855 5855 5855 5854 5854 5853 5852 5851 5849 5848 5846 5844 5842 5840 5837 5835 5833 5831 5829 5826 5823 5821 5818 5815 5812 5809 5806 5804 5800 5797 5794 5791 5788
5846 5846 5846 5847 5847 5847 5847 5848 5848 5849 5849 5849 5848 5848 5848 5847 5846 5845 5843 5842 5840 5838 5836 5834 5832 5830 5828 5825 5823 5821 5818 5815 5813 5810 5807 5804 5801 5798 5795 5792 5788 5785 5782